Lynchburg, VA

2:52 AM EDT on October 15, 2019 (GMT -0400)
Lynchburg Regional-Glenn

Weather History for KLYH - August, 2019

Change the Weather History Date:

Friday, August 23, 2019

  Actual Average Record
Temperature  
Mean Temperature 76 °F 74 °F  
Max Temperature 90 °F 85 °F 98 °F (2002)
Min Temperature 61 °F 63 °F 49 °F (1997)
Degree Days  
Heating Degree Days 0 0  
Month to date heating degree days 0 0  
Since 1 June heating degree days 2 15  
Since 1 July heating degree days 0 1  
Cooling Degree Days 10 9  
Month to date cooling degree days 312 221  
Year to date cooling degree days 1167 835  
Since 1 June cooling degree days 955 753  
Growing Degree Days 26 (Base 50)    
Moisture  
Dew Point 68 °F    
Average Humidity 89    
Maximum Humidity 100    
Minimum Humidity 53    
Precipitation  
Precipitation 0.64 in 0.11 in 2.64 in (1967)
Month to date precipitation 3.08 2.41  
Year to date precipitation 27.42 27.08  
Snow  
Snow 0.00 in - - ()
Month to date snowfall 0.0  
Since 1 June snowfall 0.0  
Since 1 July snowfall 0.0  
Snow Depth 0.00 in    
Sea Level Pressure  
Sea Level Pressure 30.01 in    
Wind  
Wind Speed 6 mph ()    
Max Wind Speed 23 mph    
Max Gust Speed 27 mph    
Visibility 7.0 miles    
Events Rain , Thunderstorm    
T = Trace of Precipitation, MM = Missing Value Source: Averaged Metar Reports

Daily Weather History Graph

Daily Weather History Graph

Search for Another Location

Airport or City:

Astronomy

Aug. 23, 2019 Rise Set
Actual Time 6:39 AM EDT 7:58 PM EDT
Civil Twilight 6:12 AM EDT 8:25 PM EDT
Nautical Twilight 5:39 AM EDT 8:58 PM EDT
Astronomical Twilight 5:05 AM EDT 9:32 PM EDT
Moon No Moon Rise 2:05 PM EDT (8/23)
Length of Visible Light 14h 13m
Length of Day
13h 19m
Waning Gibbous, 50% of the Moon is Illuminated
Aug 23
Waning Gibbous
Aug 30
New
Sep 5
First Quarter
Sep 14
Full
Sep 21
Last Quarter

Hourly Weather History & Observations

Time (EDT) Temp. Heat Index Dew Point Humidity Pressure Visibility Wind Dir Wind Speed Gust Speed Precip Events Conditions
12:15 AM 71.1 °F - 70.0 °F 96% 30.01 in 7.0 mi South 4.6 mph - N/A   Scattered Clouds
12:22 AM 71.1 °F - 71.1 °F 100% 30.01 in 2.5 mi SSW 5.8 mph - N/A   Mostly Cloudy
12:26 AM 71.1 °F - 71.1 °F 100% 30.01 in 1.2 mi SSW 6.9 mph - N/A   Mostly Cloudy
12:37 AM 71.1 °F - 71.1 °F 100% 30.01 in 2.0 mi SSW 6.9 mph - N/A   Overcast
12:45 AM 71.1 °F - 70.0 °F 96% 30.01 in 6.0 mi SSW 4.6 mph - N/A   Mostly Cloudy
12:54 AM 71.1 °F - 70.0 °F 96% 29.98 in 8.0 mi SSW 3.5 mph - N/A   Mostly Cloudy
1:06 AM 70.0 °F - 70.0 °F 100% 30.01 in 8.0 mi SSW 5.8 mph - N/A   Partly Cloudy
1:54 AM 70.0 °F - 69.1 °F 97% 29.97 in 6.0 mi SSW 5.8 mph - N/A   Clear
2:13 AM 70.0 °F - 69.1 °F 97% 30.00 in 5.0 mi SW 3.5 mph - N/A   Scattered Clouds
2:34 AM 70.0 °F - 69.1 °F 97% 30.00 in 6.0 mi SSW 4.6 mph - N/A   Mostly Cloudy
2:54 AM 69.1 °F - 69.1 °F 100% 29.97 in 3.0 mi South 5.8 mph - N/A   Mostly Cloudy
2:56 AM 70.0 °F - 69.1 °F 97% 30.00 in 2.0 mi South 5.8 mph - N/A   Mostly Cloudy
2:59 AM 70.0 °F - 69.1 °F 97% 30.00 in 1.2 mi South 6.9 mph - N/A   Mostly Cloudy
3:13 AM 69.1 °F - 69.1 °F 100% 30.00 in 1.5 mi SSW 5.8 mph - N/A   Mostly Cloudy
3:17 AM 69.1 °F - 69.1 °F 100% 30.00 in 3.0 mi SSW 5.8 mph - N/A   Mostly Cloudy
3:29 AM 69.1 °F - 69.1 °F 100% 30.00 in 8.0 mi SSW 5.8 mph - N/A   Scattered Clouds
4:54 AM 70.0 °F - 69.1 °F 97% 29.97 in 10.0 mi Calm Calm - N/A   Clear
5:54 AM 70.0 °F - 69.1 °F 97% 29.97 in 10.0 mi Calm Calm - N/A   Partly Cloudy
6:54 AM 70.0 °F - 69.1 °F 97% 29.96 in 10.0 mi Calm Calm - N/A   Clear
7:54 AM 72.0 °F - 70.0 °F 93% 29.99 in 10.0 mi South 4.6 mph - N/A   Clear
8:54 AM 73.0 °F - 71.1 °F 93% 29.99 in 10.0 mi SSW 5.8 mph - N/A   Scattered Clouds
9:54 AM 75.0 °F - 71.1 °F 87% 29.99 in 10.0 mi SSW 8.1 mph - N/A   Clear
10:54 AM 80.1 °F 83.2 °F 70.0 °F 71% 30.00 in 10.0 mi WSW 5.8 mph - N/A   Clear
11:54 AM 82.0 °F 85.9 °F 70.0 °F 67% 30.00 in 10.0 mi Variable 3.5 mph - N/A   Mostly Cloudy
12:54 PM 84.9 °F 88.2 °F 68.0 °F 57% 29.98 in 10.0 mi SSW 4.6 mph - N/A   Scattered Clouds
1:54 PM 88.0 °F 92.1 °F 69.1 °F 53% 29.96 in 10.0 mi Variable 3.5 mph - N/A   Mostly Cloudy
2:54 PM 86.0 °F 89.4 °F 68.0 °F 55% 29.95 in 10.0 mi WSW 4.6 mph - N/A   Overcast
3:47 PM 84.9 °F 88.8 °F 69.1 °F 59% 29.98 in 10.0 mi North 9.2 mph 18.4 mph N/A Thunderstorm Overcast
3:54 PM 78.1 °F - 70.0 °F 76% 29.96 in 6.0 mi North 16.1 mph 21.9 mph 0.00 in Rain , Thunderstorm Light Rain
4:02 PM 75.0 °F - 71.1 °F 87% 29.98 in 7.0 mi North 15.0 mph 21.9 mph 0.01 in Rain Light Rain
4:12 PM 73.0 °F - 71.1 °F 93% 30.00 in 1.2 mi North 9.2 mph 20.7 mph 0.01 in Rain Heavy Rain
4:20 PM 72.0 °F - 71.1 °F 97% 30.00 in 0.8 mi North 10.4 mph - 0.28 in Rain Heavy Rain
4:23 PM 73.0 °F - 72.0 °F 96% 30.00 in 1.5 mi North 9.2 mph - 0.29 in Rain Light Rain
4:26 PM 73.0 °F - 72.0 °F 96% 29.99 in 4.0 mi NNE 12.7 mph 18.4 mph 0.29 in Rain Light Rain
4:33 PM 73.0 °F - 71.1 °F 93% 30.00 in 7.0 mi NNE 12.7 mph - 0.29 in Rain Light Rain
4:54 PM 75.0 °F - 71.1 °F 87% 29.97 in 10.0 mi NNE 15.0 mph 21.9 mph 0.31 in   Scattered Clouds
5:54 PM 73.9 °F - 68.0 °F 82% 29.98 in 10.0 mi NNE 10.4 mph - N/A   Clear
6:29 PM 73.0 °F - 68.0 °F 84% 30.00 in 10.0 mi NE 10.4 mph - N/A   Mostly Cloudy
6:54 PM 71.1 °F - 66.9 °F 87% 29.99 in 10.0 mi ENE 11.5 mph 17.3 mph N/A   Mostly Cloudy
7:13 PM 70.0 °F - 66.0 °F 87% 30.02 in 10.0 mi NE 11.5 mph 17.3 mph N/A   Overcast
7:54 PM 69.1 °F - 66.9 °F 93% 30.02 in 10.0 mi ENE 6.9 mph - N/A   Overcast
8:22 PM 69.1 °F - 64.9 °F 87% 30.05 in 10.0 mi NE 12.7 mph 19.6 mph N/A   Overcast
8:54 PM 69.1 °F - 64.9 °F 87% 30.03 in 10.0 mi NE 12.7 mph - N/A   Overcast
9:06 PM 69.1 °F - 64.9 °F 87% 30.07 in 10.0 mi NE 10.4 mph - N/A   Overcast
9:14 PM 69.1 °F - 64.9 °F 87% 30.07 in 10.0 mi NE 9.2 mph - N/A   Overcast
9:54 PM 68.0 °F - 64.9 °F 90% 30.06 in 10.0 mi NE 10.4 mph - N/A   Overcast
10:54 PM 66.9 °F - 66.0 °F 97% 30.08 in 5.0 mi NE 5.8 mph - 0.03 in Rain Light Rain
11:15 PM 66.0 °F - 64.9 °F 96% 30.11 in 2.5 mi NNE 9.2 mph - 0.10 in Rain Rain
11:22 PM 66.0 °F - 66.0 °F 100% 30.11 in 5.0 mi NNE 9.2 mph - 0.12 in Rain Light Rain
11:50 PM 64.4 °F - 57.2 °F 77% 30.12 in 10.0 mi NE 19.6 mph 25.3 mph 0.13 in Rain Light Rain
11:54 PM 63.0 °F - 59.0 °F 87% 30.11 in 7.0 mi NE 11.5 mph - 0.13 in Rain Light Rain